TimeCST,TemperatureF,Dew PointF,Humidity,Sea Level PressureIn,VisibilityMPH,Wind Direction,Wind SpeedMPH,Gust SpeedMPH,PrecipitationIn,Events,Conditions,WindDirDegrees,DateUTC
12:53 AM,46.9,45.0,93,30.17,10.0,Calm,Calm,-,N/A,,Clear,0,2012-11-20 06:53:00
1:53 AM,46.9,44.1,90,30.17,10.0,Calm,Calm,-,N/A,,Clear,0,2012-11-20 07:53:00
2:53 AM,46.9,45.0,93,30.17,9.0,Calm,Calm,-,N/A,,Clear,0,2012-11-20 08:53:00
3:53 AM,46.9,45.0,93,30.17,9.0,Calm,Calm,-,N/A,,Clear,0,2012-11-20 09:53:00
4:53 AM,48.0,46.0,93,30.17,10.0,Calm,Calm,-,N/A,,Clear,0,2012-11-20 10:53:00
5:53 AM,48.0,46.0,93,30.18,10.0,Calm,Calm,-,N/A,,Clear,0,2012-11-20 11:53:00
6:53 AM,50.0,46.9,89,30.19,10.0,Calm,Calm,-,N/A,,Clear,0,2012-11-20 12:53:00
7:53 AM,53.1,48.9,86,30.20,10.0,Calm,Calm,-,N/A,,Clear,0,2012-11-20 13:53:00
8:53 AM,59.0,48.9,69,30.21,9.0,Calm,Calm,-,N/A,,Clear,0,2012-11-20 14:53:00
9:53 AM,64.9,48.0,54,30.20,10.0,Calm,Calm,-,N/A,,Clear,0,2012-11-20 15:53:00
10:53 AM,68.0,46.0,45,30.19,10.0,North,8.1,-,N/A,,Clear,350,2012-11-20 16:53:00
11:53 AM,70.0,45.0,41,30.14,10.0,NNW,8.1,-,N/A,,Clear,340,2012-11-20 17:53:00
12:53 PM,71.1,44.1,38,30.12,10.0,NNE,8.1,-,N/A,,Clear,20,2012-11-20 18:53:00
1:53 PM,71.1,41.0,34,30.12,10.0,North,4.6,-,N/A,,Clear,10,2012-11-20 19:53:00
2:53 PM,72.0,39.9,31,30.10,10.0,Variable,3.5,-,N/A,,Clear,0,2012-11-20 20:53:00
3:53 PM,66.9,48.0,51,30.11,10.0,South,3.5,-,N/A,,Clear,190,2012-11-20 21:53:00
4:53 PM,62.1,50.0,65,30.12,10.0,Calm,Calm,-,N/A,,Clear,0,2012-11-20 22:53:00
5:53 PM,57.0,51.1,81,30.13,10.0,Calm,Calm,-,N/A,,Clear,0,2012-11-20 23:53:00
6:53 PM,54.0,50.0,86,30.14,10.0,Calm,Calm,-,N/A,,Clear,0,2012-11-21 00:53:00
7:53 PM,53.1,48.9,86,30.15,10.0,Calm,Calm,-,N/A,,Clear,0,2012-11-21 01:53:00
8:53 PM,51.1,48.0,89,30.16,8.0,Calm,Calm,-,N/A,,Clear,0,2012-11-21 02:53:00
9:53 PM,48.9,46.9,93,30.17,8.0,Calm,Calm,-,N/A,,Clear,0,2012-11-21 03:53:00
10:53 PM,48.9,46.0,90,30.17,9.0,Calm,Calm,-,N/A,,Clear,0,2012-11-21 04:53:00
11:53 PM,46.0,44.1,93,30.16,8.0,Calm,Calm,-,N/A,,Clear,0,2012-11-21 05:53:00